Regional Weather Roundup
Issued by NWS

Home | Current Version | Previous Version | Graphics & Text | Print | Product List | Glossary On
Versions: 1 2 3 4 5 6 7 8 9 10 11 12 13 14 15 16 17 18 19 20 21 22 23 24 25 26 27 28 29 30 31 32 33 34 35 36 37 38 39 40 41 42 43 44 45 46 47 48 49 50
000
ASUS43 KMPX 280901
RWRMN
WEATHER ROUNDUP FOR MINNESOTA
NATIONAL WEATHER SERVICE TWIN CITIES/CHANHASSEN MN
400 AM CDT FRI AUG 28 2015


NOTE: "FAIR" INDICATES FEW OR NO CLOUDS BELOW 12,000 FEET WITH NO
SIGNIFICANT WEATHER AND/OR OBSTRUCTIONS TO VISIBILITY. N/A MEANS
CURRENT SKY AND/OR WEATHER CONDITIONS ARE NOT AVAILABLE.

MNZ060>063-068>070-281000-
   Twin Cities Metro

CITY           SKY/WX    TMP DP  RH WIND       PRES   REMARKS
TWIN CITIES    CLOUDY    66  60  81 SE3       29.99F
ST PAUL        CLOUDY    63  60  90 SE6       30.00S
CRYSTAL        CLOUDY    65  60  84 S5        29.98S
BLAINE         MOCLDY    64  63  94 S5        29.99S
LAKEVILLE      CLOUDY    63  61  94 CALM      29.99F
EDEN PRAIRIE   CLOUDY    64  60  87 S5        29.97F
SOUTH ST PAUL  CLOUDY    64  60  86 CALM      29.99F
LAKE ELMO      FAIR      63  61  94 S6        30.01S
$$
MNZ001>005-007-008-013>017-022>024-027-028-281000-
   Northwest Minnesota

CITY           SKY/WX    TMP DP  RH WIND       PRES   REMARKS
BEMIDJI        PTCLDY    62  61  97 S6        29.92S
HALLOCK        CLEAR     63  61  94 S6        29.84R
ROSEAU         PTCLDY    59  54  82 S5        29.87R HAZE
WARROAD        FOG       59  55  88 CALM      29.88R VSB 1/2
THIEF RVR FALL PTCLDY   N/A N/A N/A S7        29.87S
CROOKSTON      CLEAR     64  63  94 S7        29.88R
FOSSTON        CLEAR     59  57  94 S6        29.91R FOG
DETROIT LAKES  PTCLDY    64  63  94 S3        29.94F
MOORHEAD       PTCLDY    64  64 100 S7        29.91S
PARK RAPIDS    CLOUDY    65  63  93 S8        29.95S FOG
MAHNOMEN       FAIR      64  64  97 S8        29.92R
$$
MNZ006-009>011-018-025>026-281000-
   North Central Minnesota

CITY           SKY/WX    TMP DP  RH WIND       PRES   REMARKS
BAUDETTE       FOG       61  60  97 CALM      29.89R VSB 1/2
FLAG ISLAND    MOCLDY    64  63  94 SW5       29.86R FOG
INTL FALLS     CLOUDY    62  60  93 VRB3      29.91R
WASKISH        CLOUDY    64  63  94 S3        29.91R
BIG FORK       CLOUDY    61  57  88 S5        29.94R FOG
LONGVILLE      CLOUDY    63  63 100 S5        29.95S
GRAND RAPIDS     N/A     61  57  88 S6        29.95S
CRANE LAKE     MOCLDY    61  57  88 S5        29.95S
ORR            PTCLDY    59  55  88 CALM      29.92S
COOK           PTCLDY    61  57  88 S3        29.95S
WALKER         CLOUDY    63  63  99 S6        29.93S FOG
$$
MNZ012-019>021-037-281000-
   Northeast Minnesota

CITY           SKY/WX    TMP DP  RH WIND       PRES   REMARKS
DULUTH         MOCLDY    60  56  86 SW6       29.98S
ELY            CLEAR     57  55  94 CALM      29.97S
HIBBING        CLOUDY    52  51  97 SE3       29.96S
EVELETH        CLOUDY    57  55  94 S3        29.98S
DULUTH HARBOR  CLOUDY    55  52  88 CALM      29.99R
TWO HARBORS    CLOUDY    63  57  82 CALM      29.97R
SILVER BAY     CLOUDY    59  55  88 CALM      29.97S
GRAND MARAIS     N/A     53  49  86 CALM      29.97R
G MARAIS ARPRT CLOUDY    55  48  76 CALM      30.00S
$$
MNZ029>031-032-039>041-046>048-054>057-064-281000-
   West Central Minnesota

CITY           SKY/WX    TMP DP  RH WIND       PRES   REMARKS
FERGUS FALLS   MOCLDY    63  63 100 S8        29.94R FOG
WHEATON        FOG       57  57 100 CALM      29.96R VSB 1/4
MORRIS         CLEAR     61  59  94 SE7       29.94S FOG
ALEXANDRIA     CLEAR     61  61 100 S6        29.97S
ELBOW LAKE     FAIR      62  62 100 S7        29.95S
WADENA         FOG       63  61  94 CALM      29.94F VSB 1/2
GLENWOOD       CLEAR     61  61 100 S8        29.97S
APPLETON       CLEAR     63  61  94 SE6       29.94S
BENSON         FAIR      61  57  88 S3        29.96S
ORTONVILLE     PTCLDY    63  61  94 CALM      29.94S FOG
MADISON        PTCLDY    61  59  94 SE5       29.95R FOG
WILLMAR        FAIR      61  61 100 CALM      29.98S
$$
MNZ033>034-036-042>043-049>051-058-059-281000-
   Central Minnesota

CITY           SKY/WX    TMP DP  RH WIND       PRES   REMARKS
ST CLOUD       PTCLDY    59  59 100 S6        29.98R
SAUK CENTRE    FAIR      59  59  99 S6        29.97S
PAYNESVILLE    PTCLDY    61  59  93 SE8       29.98S
AITKIN         CLOUDY    66  61  82 S5        29.95S
PINE RIVER     CLOUDY    64  64 100 S5        29.98S
BRAINERD       CLOUDY    62  60  93 S8        29.97S
STAPLES        CLOUDY    63  63 100 S7        29.96R FOG
LONG PRAIRIE   FAIR      59  59 100 S7        29.97S
LITTLE FALLS   PTCLDY    59  57  94 CALM      29.97S
LITCHFIELD     MOCLDY    61  61 100 SE3       29.98F
BUFFALO        MOCLDY    61  58  89 CALM      29.99F
MAPLE LAKE     MOCLDY    60  58  96 CALM      30.00S FOG
$$
MNZ037-044-045-052-053-281000-
   East Central Minnesota

CITY           SKY/WX    TMP DP  RH WIND       PRES   REMARKS
PRINCETON      PTCLDY    63  59  88 S5        29.98S
MORA           CLEAR     55  54  94 CALM      29.99S
CAMBRIDGE      PTCLDY    63  54  72 S6        29.97S
RUSH CITY      PTCLDY    60  57  92 S3        29.99S
MOOSE LAKE     CLOUDY    61  57  88 SW5       29.96S
HINCKLEY       FAIR      54  54 100 CALM      29.99R FOG
CLOQUET        PTCLDY    57  55  94 CALM      29.98S
MCGREGOR       CLOUDY    63  61  94 SW5       29.97S
$$
MNZ071>073-080-081-089-090-097-098-281000-
   Southwest Minnesota

CITY           SKY/WX    TMP DP  RH WIND       PRES   REMARKS
MONTEVIDEO     PTCLDY    61  61 100 S3        29.97R
GRANITE FALLS  MOCLDY    60  59  97 CALM      29.97S
CANBY          MOCLDY    60  59  96 CALM      29.97R FOG
MARSHALL       CLOUDY    64  59  82 S12       29.96R
REDWOOD FALLS  CLOUDY    62  61  96 SE5       29.97R
OLIVIA         MOCLDY    57  55  94 CALM      29.96S
PIPESTONE      CLOUDY    64  63  94 S7        29.95S
WINDOM         CLOUDY    64  61  88 SE13      29.98S
WORTHINGTON    CLOUDY    63  57  82 SE9       29.96S
JACKSON        CLOUDY    63  63 100 SE12      29.99F
TRACY          CLOUDY    65  63  91 S6        29.96S
SLAYTON        CLOUDY    63  63 100 CALM      29.97S
$$
MNZ065>067-074>077-082>085-091>093-281000-
   South Central Minnesota

CITY           SKY/WX    TMP DP  RH WIND       PRES   REMARKS
MANKATO        CLOUDY    64  61  88 S14G22    29.99R
NEW ULM        LGT RAIN  63  63 100 W3        29.98R
ST JAMES       CLOUDY    64  64 100 SE12      29.99S
FAIRMONT       CLOUDY    63  57  82 SE7       30.00S
GLENCOE        CLOUDY    62  61  97 CALM      29.97S
FARIBAULT      CLOUDY    64  61  88 CALM      29.99S
OWATONNA       CLOUDY    64  61  88 S13G20    29.99R
WASECA         DRIZZLE   63  59  88 S12G17    30.02R
ALBERT LEA     CLOUDY    63  63 100 S9G16     30.03R
$$
MNZ078>079-086>088-094>096-281000-
   Southeast Minnesota

CITY           SKY/WX    TMP DP  RH WIND       PRES   REMARKS
ROCHESTER      LGT RAIN  62  59  90 S16       30.03F
RED WING       CLOUDY    66  59  77 S3        30.00F
STANTON        CLOUDY    65  60  82 S6        29.98F
DODGE CENTER   LGT RAIN  63  61  94 S9        30.00F
WINONA         CLOUDY    64  59  82 CALM      30.05F
AUSTIN         RAIN      63  61  94 S13       30.04S
PRESTON        CLOUDY    61  58  89 S8        30.06F
$$
ABBREVIATIONS USED IN REMARKS
   TC - TEMPERATURES IN CELSIUS
  WCI - WIND CHILL INDEX
   HX - HEAT INDEX
  VSB - VISIBILITY
$$


USA.gov is the U.S. government's official web portal to all federal, state and local government web resources and services.